Tracking 17857 objects as of 29-September-2016
HD Live streaming from Space Station
objects crossing your sky now

ATLAS 55E R/B

Track ATLAS 55E R/B now!
10-day predictions


NORAD ID: 16137
Int'l Code: 1985-093B
Perigee: 949.6 km
Apogee: 20,346.1 km
Inclination: 63.7 °
Period: 368.3 minutes
Semi major axis: 17018 km
RCS: 2.2883 m2 (large)
Launch date: October 9, 1985
Source: United States (US)
Launch site: AIR FORCE WESTERN TEST RANGE (AFWTR)

Note: This is a ROCKET BODY
Your satellite tracking list
Your tracking list is empty





NASA's NSSDC Master Catalog

Two Line Element Set (TLE):
1 16137U 85093B   16271.28610645  .00000404  00000-0  13410-1 0  9990
2 16137  63.6764  71.3424 5698544 359.9812 359.9843  3.91027654442302
Source of the keplerian elements: AFSPC

N2YO: 483